SCP
0 0 0 -0 0 0 -0 -0 0 -0 -1 -0 0 -0 -0 -0 -0 -0 -0 0 -0 -0 -0 0 0 0 0 0 0 0 0 0
0 0 -0 -0 0 0 0 -0 0 0 0 -0 0 -0 -0 -0 -0 -0 -0 0 0 0 0 0 0 0 0 0 0 0 0 0
0 0 -0 0 0 0 0 -0 0 0 0 0 0 -0 -1 -0 -0 -0 0 0 0 0 0 0 0 0 0 0 0 0 0 0
0 0 -0 0 0 0 0 0 0 -0 -0 -0 0 0 -0 -0 -1 -0 0 0 -0 0 0 0 0 0 0 0 0 1 0 0
0 -0 -0 0 0 0 0 0 0 0 0 0 0 -0 0 1 0 0 0 0 0 -0 -0 0 0 0 0 0 0 1 1 1
0 0 0 0 0 0 0 0 0 0 0 0 0 -0 0 0 1 0 0 0 0 0 -0 0 0 -0 -0 0 0 1 1 1
0 0 0 0 0 0 0 0 0 -0 0 0 0 0 0 0 0 0 0 0 0 0 0 0 0 0 1 0 1 1 1 1
-0 0 0 0 0 0 0 0 0 0 0 0 0 0 0 0 0 0 0 0 0 0 0 0 1 0 1 1 1 1 1 1
0 0 0 0 0 0 0 0 0 0 0 0 0 0 0 0 0 0 0 0 0 0 0 -0 0 0 0 0 0 0 0 0
0 -0 0 0 0 0 0 0 0 0 0 0 0 0 0 0 0 0 0 0 0 0 0 0 0 0 0 0 0 0 0 0
0 0 0 0 0 0 0 0 0 0 0 0 0 0 0 0 0 0 0 0 0 0 0 0 0 0 0 0 1 1 1 0
0 0 0 0 0 0 0 0 0 0 0 0 0 0 0 0 0 0 0 0 0 0 0 0 0 0 0 0 0 0 1 0
0 0 0 0 0 0 0 0 0 0 0 0 0 0 0 0 -0 0 0 0 0 0 0 0 0 0 0 0 0 0 0 0
0 0 0 0 0 0 0 0 0 0 0 0 0 0 0 0 -0 0 0 0 0 0 0 0 0 0 0 0 0 0 0 0
0 0 0 0 0 0 0 0 0 0 0 0 0 0 0 0 0 0 0 0 -0 -0 -0 -0 -0 -0 0 0 0 0 0 0
0 0 0 0 0 0 0 0 0 0 0 0 0 0 0 0 0 0 0 0 0 -0 -0 -0 -0 -0 -0 0 0 0 0 0
0 0 0 0 0 0 0 0 0 0 0 0 0 0 0 0 0 0 0 0 0 -0 -0 -0 -0 -0 -0 0 0 0 0 0
-0 0 0 0 0 0 0 0 0 0 0 0 0 0 0 0 0 0 0 0 0 0 0 0 -0 -0 -0 0 0 0 0 0
0 0 0 0 0 0 0 0 0 0 0 0 0 0 0 0 0 0 0 0 0 0 0 0 0 -0 0 0 0 0 0 0
0 0 0 -0 0 -0 0 0 0 0 0 0 0 0 0 0 0 0 0 0 0 0 0 0 0 0 -0 0 0 0 0 0
Wind_Speed_500mb
7 6 10 7 11 15 12 19 23 17 35 36 36 47 27 31 31 28 32 26 23 21 19 17 20 22 22 23 21 17 16 16
1 17 24 15 10 16 15 9 40 39 22 51 32 53 47 46 24 30 30 24 22 19 16 15 18 19 19 21 20 17 15 16
8 21 13 4 14 12 12 6 47 65 31 48 34 41 47 38 43 28 25 22 20 17 14 13 14 15 15 16 17 16 15 16
10 17 12 9 13 14 22 47 39 51 42 39 34 29 27 42 31 9 20 22 19 14 10 9 8 8 9 11 13 14 14 15
17 24 9 4 11 16 23 42 30 47 17 35 32 26 25 33 24 13 16 17 7 13 11 10 8 8 8 5 8 13 16 19
14 14 6 8 11 28 43 20 25 25 10 16 28 18 24 22 22 20 20 27 6 10 13 21 8 5 5 7 8 13 20 25
15 17 6 14 11 27 21 17 39 40 36 29 24 30 41 74 67 34 58 33 17 13 14 22 22 12 7 5 6 9 20 25
5 11 13 18 26 32 32 48 47 48 39 30 26 22 40 56 57 50 39 31 34 22 20 22 12 7 13 13 9 26 24 20
14 27 29 14 18 24 34 17 41 46 42 45 37 34 34 36 39 34 28 24 27 15 6 13 11 15 13 7 24 29 27 20
18 28 18 15 18 27 49 32 32 35 28 35 52 44 40 33 33 37 34 34 35 32 29 25 20 19 8 8 11 19 30 26
10 14 7 25 22 22 40 36 33 35 40 31 29 33 28 32 31 36 38 36 38 38 35 34 36 31 26 23 17 11 23 24
5 9 11 3 15 15 27 24 25 23 28 32 28 23 26 34 34 37 32 35 34 32 35 35 36 37 36 31 20 24 24 26
8 11 11 8 11 13 34 26 27 22 20 21 20 15 19 19 24 31 33 35 36 35 34 33 37 40 40 38 34 28 29 34
18 19 13 11 15 17 35 26 22 32 27 30 19 12 11 18 26 30 34 41 47 52 53 50 47 46 43 38 35 32 30 27
11 21 15 9 10 18 35 30 15 27 33 36 28 16 12 19 26 34 34 41 52 58 60 63 62 60 51 40 35 33 32 29
17 11 11 3 7 12 35 34 30 19 40 32 16 10 9 18 32 27 29 35 44 49 53 57 65 72 64 48 43 41 42 42
8 14 11 8 8 9 41 32 23 32 26 30 23 9 9 28 27 19 23 35 42 44 45 48 58 70 64 55 55 53 47 41
10 10 9 5 16 17 15 29 32 39 37 23 9 7 17 15 11 13 29 34 37 37 38 46 54 62 59 60 62 59 59 55
5 12 14 11 15 19 13 45 44 37 24 7 4 6 4 17 8 24 29 28 34 35 39 46 54 58 56 61 65 70 67 62
17 13 6 8 10 12 21 19 21 35 20 5 7 5 16 7 23 30 20 31 41 35 41 46 49 56 56 59 70 72 69 73
Wind_Direction_500mb
169 202 209 255 3 15 43 43 61 107 85 120 132 96 182 151 155 141 176 172 159 152 150 151 151 155 162 163 163 164 167 168
96 258 264 193 27 5 3 67 86 105 66 89 124 159 155 147 151 135 133 152 153 153 146 151 152 155 164 173 176 180 184 187
247 261 286 101 72 355 347 25 99 91 98 108 133 129 145 153 157 118 120 144 146 146 144 148 149 155 167 182 188 195 202 208
266 281 226 77 66 8 13 54 84 97 105 107 103 102 104 141 149 152 115 113 109 101 115 109 118 136 173 192 202 216 226 234
289 289 295 93 78 54 70 53 20 101 79 62 70 84 119 151 159 181 127 96 44 116 97 74 76 62 33 336 274 247 244 250
275 313 306 92 68 61 63 52 56 72 47 34 15 33 21 178 172 163 136 56 91 99 71 30 45 90 63 22 358 332 303 272
288 348 88 94 76 70 54 61 83 95 100 80 23 17 28 76 79 107 80 84 57 62 26 349 330 305 307 306 280 333 301 273
222 26 6 47 61 74 59 51 41 75 72 68 39 33 45 48 57 57 62 67 86 105 92 80 58 326 335 323 289 315 296 299
356 49 16 18 36 81 84 50 62 62 58 55 47 36 36 34 38 32 17 14 17 19 350 344 34 51 45 336 326 332 277 278
56 47 11 355 15 74 94 88 73 66 72 59 51 41 31 15 359 356 346 348 344 348 341 334 338 335 316 326 330 308 303 299
65 48 340 13 353 92 83 91 84 78 72 64 56 50 22 10 353 353 344 354 353 349 337 330 318 316 318 301 284 289 294 298
284 181 116 76 296 126 114 113 99 91 78 76 73 62 38 26 7 360 352 354 352 344 335 327 321 319 315 314 295 269 278 288
241 236 140 93 316 122 132 138 134 135 136 120 104 77 57 35 11 349 347 341 343 338 333 321 318 313 309 306 303 289 271 267
235 192 149 123 286 140 141 147 168 150 146 136 125 95 50 14 354 340 331 335 338 338 333 327 321 315 310 305 301 300 300 289
129 170 154 138 140 160 166 170 161 143 153 132 127 105 33 356 348 337 327 330 339 341 339 338 337 334 322 306 297 287 279 277
147 178 95 317 306 189 182 170 185 159 137 141 123 93 10 343 335 322 316 327 336 338 338 339 339 340 336 320 305 295 283 273
94 153 126 143 246 268 187 193 160 163 151 123 109 96 339 322 313 305 321 335 335 338 335 335 341 341 338 334 327 318 308 297
304 33 91 146 249 246 233 182 169 123 102 90 57 322 311 321 309 324 333 336 339 328 327 335 340 340 334 330 326 324 318 300
51 357 349 323 304 268 257 124 109 111 106 107 272 240 339 339 346 341 337 335 328 320 322 330 334 334 331 329 325 326 326 324
7 18 283 45 278 311 94 54 76 109 138 216 156 11 323 344 335 328 328 336 324 315 323 330 332 332 335 327 324 322 319 316
Wind_Speed_850mb
7 6 10 7 11 15 12 19 23 17 35 36 36 47 27 31 31 28 32 26 23 21 19 17 20 22 22 23 21 17 16 16
1 17 24 15 10 16 15 9 40 39 22 51 32 53 47 46 24 30 30 24 22 19 16 15 18 19 19 21 20 17 15 16
8 21 13 4 14 12 12 6 47 65 31 48 34 41 47 38 43 28 25 22 20 17 14 13 14 15 15 16 17 16 15 16
10 17 12 9 13 14 22 47 39 51 42 39 34 29 27 42 31 9 20 22 19 14 10 9 8 8 9 11 13 14 14 15
17 24 9 4 11 16 23 42 30 47 17 35 32 26 25 33 24 13 16 17 7 13 11 10 8 8 8 5 8 13 16 19
14 14 6 8 11 28 43 20 25 25 10 16 28 18 24 22 22 20 20 27 6 10 13 21 8 5 5 7 8 13 20 25
15 17 6 14 11 27 21 17 39 40 36 29 24 30 41 74 67 34 58 33 17 13 14 22 22 12 7 5 6 9 20 25
5 11 13 18 26 32 32 48 47 48 39 30 26 22 40 56 57 50 39 31 34 22 20 22 12 7 13 13 9 26 24 20
14 27 29 14 18 24 34 17 41 46 42 45 37 34 34 36 39 34 28 24 27 15 6 13 11 15 13 7 24 29 27 20
18 28 18 15 18 27 49 32 32 35 28 35 52 44 40 33 33 37 34 34 35 32 29 25 20 19 8 8 11 19 30 26
10 14 7 25 22 22 40 36 33 35 40 31 29 33 28 32 31 36 38 36 38 38 35 34 36 31 26 23 17 11 23 24
5 9 11 3 15 15 27 24 25 23 28 32 28 23 26 34 34 37 32 35 34 32 35 35 36 37 36 31 20 24 24 26
8 11 11 8 11 13 34 26 27 22 20 21 20 15 19 19 24 31 33 35 36 35 34 33 37 40 40 38 34 28 29 34
18 19 13 11 15 17 35 26 22 32 27 30 19 12 11 18 26 30 34 41 47 52 53 50 47 46 43 38 35 32 30 27
11 21 15 9 10 18 35 30 15 27 33 36 28 16 12 19 26 34 34 41 52 58 60 63 62 60 51 40 35 33 32 29
17 11 11 3 7 12 35 34 30 19 40 32 16 10 9 18 32 27 29 35 44 49 53 57 65 72 64 48 43 41 42 42
8 14 11 8 8 9 41 32 23 32 26 30 23 9 9 28 27 19 23 35 42 44 45 48 58 70 64 55 55 53 47 41
10 10 9 5 16 17 15 29 32 39 37 23 9 7 17 15 11 13 29 34 37 37 38 46 54 62 59 60 62 59 59 55
5 12 14 11 15 19 13 45 44 37 24 7 4 6 4 17 8 24 29 28 34 35 39 46 54 58 56 61 65 70 67 62
17 13 6 8 10 12 21 19 21 35 20 5 7 5 16 7 23 30 20 31 41 35 41 46 49 56 56 59 70 72 69 73
Wind_Direction_850mb
169 202 209 255 3 15 43 43 61 107 85 120 132 96 182 151 155 141 176 172 159 152 150 151 151 155 162 163 163 164 167 168
96 258 264 193 27 5 3 67 86 105 66 89 124 159 155 147 151 135 133 152 153 153 146 151 152 155 164 173 176 180 184 187
247 261 286 101 72 355 347 25 99 91 98 108 133 129 145 153 157 118 120 144 146 146 144 148 149 155 167 182 188 195 202 208
266 281 226 77 66 8 13 54 84 97 105 107 103 102 104 141 149 152 115 113 109 101 115 109 118 136 173 192 202 216 226 234
289 289 295 93 78 54 70 53 20 101 79 62 70 84 119 151 159 181 127 96 44 116 97 74 76 62 33 336 274 247 244 250
275 313 306 92 68 61 63 52 56 72 47 34 15 33 21 178 172 163 136 56 91 99 71 30 45 90 63 22 358 332 303 272
288 348 88 94 76 70 54 61 83 95 100 80 23 17 28 76 79 107 80 84 57 62 26 349 330 305 307 306 280 333 301 273
222 26 6 47 61 74 59 51 41 75 72 68 39 33 45 48 57 57 62 67 86 105 92 80 58 326 335 323 289 315 296 299
356 49 16 18 36 81 84 50 62 62 58 55 47 36 36 34 38 32 17 14 17 19 350 344 34 51 45 336 326 332 277 278
56 47 11 355 15 74 94 88 73 66 72 59 51 41 31 15 359 356 346 348 344 348 341 334 338 335 316 326 330 308 303 299
65 48 340 13 353 92 83 91 84 78 72 64 56 50 22 10 353 353 344 354 353 349 337 330 318 316 318 301 284 289 294 298
284 181 116 76 296 126 114 113 99 91 78 76 73 62 38 26 7 360 352 354 352 344 335 327 321 319 315 314 295 269 278 288
241 236 140 93 316 122 132 138 134 135 136 120 104 77 57 35 11 349 347 341 343 338 333 321 318 313 309 306 303 289 271 267
235 192 149 123 286 140 141 147 168 150 146 136 125 95 50 14 354 340 331 335 338 338 333 327 321 315 310 305 301 300 300 289
129 170 154 138 140 160 166 170 161 143 153 132 127 105 33 356 348 337 327 330 339 341 339 338 337 334 322 306 297 287 279 277
147 178 95 317 306 189 182 170 185 159 137 141 123 93 10 343 335 322 316 327 336 338 338 339 339 340 336 320 305 295 283 273
94 153 126 143 246 268 187 193 160 163 151 123 109 96 339 322 313 305 321 335 335 338 335 335 341 341 338 334 327 318 308 297
304 33 91 146 249 246 233 182 169 123 102 90 57 322 311 321 309 324 333 336 339 328 327 335 340 340 334 330 326 324 318 300
51 357 349 323 304 268 257 124 109 111 106 107 272 240 339 339 346 341 337 335 328 320 322 330 334 334 331 329 325 326 326 324
7 18 283 45 278 311 94 54 76 109 138 216 156 11 323 344 335 328 328 336 324 315 323 330 332 332 335 327 324 322 319 316